Location: Caltech
(34.1382°N, 118.1253°W)
Time: 01:37:52
(UTC-08:00)

JAS-1B - Visible Passes

Search period start: 09 December 2016 00:00
Search period end: 19 December 2016 00:00
Orbit: 911 x 1744 km, 99.0° (Epoch: 08 December)

Date Brightness Start Highest point End Pass type
(mag) Time Alt. Az. Time Alt. Az. Time Alt. Az.
09 Dec 9.8 02:23:07 10° E 02:24:29 13° E 02:24:29 13° E visible
09 Dec 7.3 04:09:50 10° S 04:16:43 67° SW 04:16:43 67° SW visible
09 Dec 9.0 17:48:54 10° NNW 17:53:49 28° WNW 17:59:14 10° SW visible
10 Dec 9.4 02:40:38 10° ESE 02:43:27 19° E 02:43:27 19° E visible
10 Dec 7.5 04:29:11 10° S 04:35:41 48° WSW 04:35:41 48° WSW visible
10 Dec 9.4 18:08:35 10° NNW 18:12:40 19° WNW 18:17:05 10° WSW visible
11 Dec 9.0 02:58:40 10° SE 03:02:26 26° ESE 03:02:26 26° ESE visible
11 Dec 7.9 04:48:51 10° SSW 04:54:39 34° WSW 04:54:39 34° WSW visible
11 Dec 9.6 18:28:49 10° NW 18:31:28 13° WNW 18:34:14 10° W visible
12 Dec 8.6 03:17:02 10° SE 03:21:25 34° ESE 03:21:25 34° ESE visible
12 Dec 8.4 05:08:55 10° SSW 05:13:38 23° WSW 05:13:38 23° WSW visible
13 Dec 8.2 03:35:41 10° SSE 03:40:24 42° SE 03:40:24 42° SE visible
13 Dec 8.8 05:29:40 10° SW 05:32:38 15° WSW 05:32:38 15° WSW visible
13 Dec 8.1 17:13:24 10° N 17:19:15 52° WNW 17:26:00 10° SSW visible
14 Dec 7.9 03:54:36 10° SSE 03:59:23 45° S 03:59:23 45° S visible
14 Dec 8.7 17:32:41 10° N 17:38:11 37° WNW 17:44:28 10° SW visible
15 Dec 7.9 04:13:46 10° S 04:18:24 40° SSW 04:18:24 40° SSW visible
15 Dec 9.2 17:52:08 10° NNW 17:57:05 26° WNW 18:02:37 10° WSW visible
16 Dec 9.6 02:44:01 10° ESE 02:45:10 14° ESE 02:45:10 14° ESE visible
16 Dec 8.1 04:33:14 10° S 04:37:24 31° SW 04:37:24 31° SW visible
16 Dec 9.5 18:11:54 10° NNW 18:15:56 18° WNW 18:20:19 10° WSW visible
17 Dec 9.3 03:02:09 10° SE 03:04:11 19° SE 03:04:11 19° SE visible
17 Dec 8.5 04:53:04 10° SSW 04:56:24 23° SW 04:56:24 23° SW visible
17 Dec 9.7 18:32:20 10° NW 18:34:43 12° WNW 18:37:12 10° W visible
18 Dec 9.0 03:20:37 10° SSE 03:23:11 23° SE 03:23:11 23° SE visible
18 Dec 8.8 05:13:22 10° SW 05:15:25 15° WSW 05:15:25 15° WSW visible
